Regional Weather Roundup
Issued by NWS

Home | Current Version | Previous Version | Graphics & Text | Print | Product List | Glossary Off
Versions: 1 2 3 4 5 6 7 8 9 10 11 12 13 14 15 16 17 18 19 20 21 22 23 24 25 26 27 28 29 30 31 32 33 34 35 36 37 38 39 40 41 42 43 44 45 46 47 48 49 50

000
ASUS43 KDTX 221810
RWRMI
MICHIGAN HOURLY REGIONAL WEATHER ROUNDUP
NATIONAL WEATHER SERVICE DETROIT/PONTIAC MI
200 PM EDT WED OCT 22 2014

NOTE: "FAIR" INDICATES FEW OR NO CLOUDS BELOW 12,000 FEET WITH NO
SIGNIFICANT WEATHER AND/OR OBSTRUCTION TO VISIBILITY.

MIZ047>049-052>055-059>063-066>070-074>076-081>083-221900-
SOUTHEAST LOWER MICHIGAN

CITY           SKY/WX    TMP DP  RH WIND       PRES   REMARKS
ADRIAN         CLOUDY    49  39  68 NE9       30.33F
6HR MIN TEMP:  43; 6HR MAX TEMP:  49;

ALMA           CLOUDY    47  38  73 CALM      30.36F
ANN ARBOR      MOSUNNY   53  39  59 N7        30.31F
BAD AXE        CLOUDY    49  40  73 N5        30.35S
DETROIT CITY   PTSUNNY   57  40  52 NE10      30.30F
6HR MIN TEMP:  47; 6HR MAX TEMP:  57;

DETROIT        PTSUNNY   56  41  57 N13       30.31F
6HR MIN TEMP:  46; 6HR MAX TEMP:  56;

FLINT          CLOUDY    50  39  66 N7        30.36F
6HR MIN TEMP:  45; 6HR MAX TEMP:  50;

GROSSE ILE     MOSUNNY   54  39  58 N6        30.28F
HILLSDALE      CLOUDY    46  40  81 N3        30.33F
HOWELL         CLOUDY    47  39  72 N6        30.33F

CITY           SKY/WX    TMP DP  RH WIND       PRES   REMARKS
JACKSON        CLOUDY    47  39  74 N5        30.34F
6HR MIN TEMP:  40; 6HR MAX TEMP:  47;

LAMBERTVILLE   PTSUNNY   52  39  62 CALM      30.31F
LANSING        CLOUDY    46  38  73 NE6       30.36F
6HR MIN TEMP:  40; 6HR MAX TEMP:  47;

LAPEER         NOT AVBL
MASON          CLOUDY    46  38  76 CALM      30.34F
MONROE         MOSUNNY   54  43  66 N8        30.29F
MT. CLEMENS    MOSUNNY   54  41  62 N15       30.27F
6HR MIN TEMP:  45; 6HR MAX TEMP:  56;

PONTIAC        PTSUNNY   50  39  66 N9        30.31F
6HR MIN TEMP:  43; 6HR MAX TEMP:  50;

PORT HOPE        N/A     49  39  68 VRB5      30.34F
6HR MIN TEMP:  46; 6HR MAX TEMP:  51;

PORT HURON     MOSUNNY   52  41  66 N12G17    30.31F
TRI CITIES     CLOUDY    49  40  71 NE8       30.37F
6HR MIN TEMP:  43; 6HR MAX TEMP:  49;

YPSILANTI      PTSUNNY   57  39  51 MISG      30.31F
6HR MIN TEMP:  48; 6HR MAX TEMP:  59;

$$
MIZ043>046-050>051-056>058-064>065-071>073-077>080-221900-
SOUTHWEST LOWER MICHIGAN

CITY           SKY/WX    TMP DP  RH WIND       PRES   REMARKS
BATTLE CREEK   CLOUDY    46  38  73 NE8       30.35F
6HR MIN TEMP:  36; 6HR MAX TEMP:  46;

BENTON HARBOR  SUNNY     51  34  52 NE6       30.34F
6HR MIN TEMP:  28; 6HR MAX TEMP:  51;

BIG RAPIDS     SUNNY     46  37  71 SE7       30.36F
6HR MIN TEMP:  26; 6HR MAX TEMP:  46;

COLDWATER      CLOUDY    46  40  78 N8        30.34F
6HR MIN TEMP:  39; 6HR MAX TEMP:  46;

HOLLAND        SUNNY     52  35  52 VRB3      30.36F
6HR MIN TEMP:  31; 6HR MAX TEMP:  52;

GRAND RAPIDS   MOSUNNY   48  38  68 NE9       30.36F
6HR MIN TEMP:  31; 6HR MAX TEMP:  50;

KALAMAZOO      CLOUDY    46  37  71 VRB3      30.36F
6HR MIN TEMP:  29; 6HR MAX TEMP:  46;

MARSHALL       CLOUDY    45  38  77 CALM      30.34F
MUSKEGON       SUNNY     53  33  46 W5        30.37F
6HR MIN TEMP:  30; 6HR MAX TEMP:  53;

$$
MIZ016>042-221900-
NORTHERN LOWER MICHIGAN

CITY           SKY/WX    TMP DP  RH WIND       PRES   REMARKS
ALPENA         SUNNY     50  34  54 VRB3      30.36F
6HR MIN TEMP:  40; 6HR MAX TEMP:  50;

BEAVER ISLAND  SUNNY     46  32  56 E3        30.39S
6HR MIN TEMP:  27; 6HR MAX TEMP:  47;

BELLAIRE       SUNNY     45  32  60 SW5       30.38F
CADILLAC       MOSUNNY   41  34  75 SE5       30.35F
CHARLEVOIX     SUNNY     47  34  60 SE7       30.40F
6HR MIN TEMP:  30; 6HR MAX TEMP:  47;

FRANKFORT      CLEAR     48  34  57 W5        30.37F
GAYLORD        SUNNY     45  31  58 VRB3      30.35F
6HR MIN TEMP:  33; 6HR MAX TEMP:  46;

GRAYLING       CLOUDY    39  33  78 SE3       30.38F
6HR MIN TEMP:  35; 6HR MAX TEMP:  40;

HARBOR SPRINGS SUNNY     48  32  53 CALM      30.37F
HOUGHTON LAKE  CLOUDY    43  34  70 E6        30.37F
6HR MIN TEMP:  35; 6HR MAX TEMP:  43;

MANISTEE       SUNNY     46  28  49 SE3       30.37F
OSCODA         MOSUNNY   49  37  63 NE8       30.36F
PELLSTON       SUNNY     48  34  58 VRB3      30.37F
6HR MIN TEMP:  25; 6HR MAX TEMP:  48;

TRAVERSE CITY  SUNNY     45  32  60 CALM      30.37F
6HR MIN TEMP:  27; 6HR MAX TEMP:  45;

$$
MIZ007>008-015-221900-
EASTERN UPPER MICHIGAN

CITY           SKY/WX    TMP DP  RH WIND       PRES   REMARKS
KINROSS          N/A     46  34  61 CALM      30.37F
6HR MIN TEMP:  28; 6HR MAX TEMP:  46;

MACKINAC ISLAN SUNNY     44  34  68 NE5       30.38F
6HR MIN TEMP:  34; 6HR MAX TEMP:  44;

NEWBERRY         N/A     47  32  55 S5        30.36F
S. S. MARIE      N/A     47  28  47 VRB7      30.37F
6HR MIN TEMP:  28; 6HR MAX TEMP:  47;

$$
MIZ004>006-011>014-085-221900-
CENTRAL UPPER MICHIGAN

CITY           SKY/WX    TMP DP  RH WIND       PRES   REMARKS
MANISTIQUE       N/A     47  36  65 S6        30.37F
ESCANABA       CLOUDY    46  34  61 SE12      30.37F
6HR MIN TEMP:  28; 6HR MAX TEMP:  46;

MENOMINEE      SUNNY     48  36  61 SE8       30.36F
6HR MIN TEMP:  28; 6HR MAX TEMP:  48;

SAWYER-GWINN   MOSUNNY   46  37  71 S10G16    30.32F
$$
MIZ001>003-009>011-084-221900-
WESTERN UPPER MICHIGAN

CITY           SKY/WX    TMP DP  RH WIND       PRES   REMARKS
IRON MOUNTAIN  SUNNY     47  35  63 SE10      30.32F
6HR MIN TEMP:  28; 6HR MAX TEMP:  47;

HOUGHTON         N/A     48  33  56 SE9       30.26F
6HR MIN TEMP:  28; 6HR MAX TEMP:  49;

COPPER HARBOR    N/A     49  33  54 S9G16     30.29F
6HR MIN TEMP:  38; 6HR MAX TEMP:  49;

IRONWOOD         N/A     54  32  43 S12G21    30.19F
6HR MIN TEMP:  37; 6HR MAX TEMP:  54;

$$

ABBREVIATIONS USED IN REMARKS
   TC - TEMPERATURE IN CELSIUS
  WCI - WIND CHILL INDEX
   HX - HEAT INDEX
  VSB - VISIBILITY




USA.gov is the U.S. government's official web portal to all federal, state and local government web resources and services.